Regional Weather Roundup
Issued by NWS State College, PA

Home | Current Version | Previous Version | Graphics & Text | Print | Product List | Glossary On
Versions: 1 2 3 4 5 6 7 8 9 10 11 12 13 14 15 16 17 18 19 20 21 22 23 24 25 26 27 28 29 30 31 32 33 34 35 36 37 38 39 40 41 42 43 44 45 46 47 48 49 50
000
ASUS41 KCTP 261610
RWRCTP

REGIONAL WEATHER ROUNDUP
NATIONAL WEATHER SERVICE STATE COLLEGE PA
1200 PM EDT THU MAR 26 2015

Note: "fair" indicates few or no clouds below 12,000 feet with no
significant weather and/or obstructions to visibility.

* = STATION THAT DOES NOT REPORT PRECIPITATION /E.G. RAIN...SNOW...ETC/
    THUNDER OR FOG.

PAZ002>004-007>009-013>016-020>023-029>032-261700-
WESTERN PENNSYLVANIA

CITY           SKY/WX    TMP DP  RH WIND       PRES   REMARKS
ERIE           SNOW      33  31  92 N5        29.83F VSB 1/2
MEADVILLE      LGT RAIN  37  35  92 NE6       29.79F FOG
FRANKLIN*      CLOUDY    37  36  93 CALM      29.80S
NEW CASTLE     LGT RAIN  40  40 100 N8        29.81F FOG
BEAVER COUNTY  LGT RAIN  43  41  93 N10       29.97R
BUTLER*        CLOUDY    43  39  87 NE7       29.77F
PITTSBURGH INT LGT RAIN  44  42  93 N9        29.76F FOG
PITTSBURGH     LGT RAIN  48  41  76 NW10      29.73F
INDIANA*       CLOUDY    50  46  87 CALM      29.74F
LATROBE        PTSUNNY   57  50  77 VRB5      29.73F
WASHINGTON CO* CLOUDY    48  45  87 NW9       29.77S
$$

PAZ004>006-010>012-017>019-024>028-033>037-041-042-045-046-049>053-261700-
CENTRAL PENNSYLVANIA

CITY           SKY/WX    TMP DP  RH WIND       PRES   REMARKS
BRADFORD       LGT RAIN  37  36  96 N8        29.75R VSB 3/4
DUBOIS         FOG       42  40  92 NW6       29.72F VSB 3/4
CLEARFIELD     CLOUDY    42  39  89 E5        29.73F FOG
JOHNSTOWN      CLOUDY    62  49  62 SW14      29.70F
ALTOONA        PTSUNNY   61  48  62 SW10      29.72F
STATE COLLEGE  PTSUNNY   46  39  76 CALM      29.73F FOG
WILLIAMSPORT   CLOUDY    44  36  73 E6        29.78F
SELINSGROVE    CLOUDY    50  41  71 S7        29.79F
FT INDIANTOWN  PTSUNNY   46  40  80 NE6       29.81F
CAPITAL CITY   PTSUNNY   49  40  71 E7        29.80F
HARRISBURG     PTSUNNY   49  39  68 S3        29.80F HAZE
YORK           CLOUDY    53  45  74 E5        29.79F
$$

PAZ038>040-043-044-047-048-054-055-060>062-067>071-261700-
EASTERN PENNSYLVANIA

CITY           SKY/WX    TMP DP  RH WIND       PRES   REMARKS
SCRANTON       CLOUDY    53  43  68 W5        29.76F HAZE
MOUNT POCONO   FOG       47  45  93 SW14G24   29.79F VSB 1/4
ALLENTOWN      CLOUDY    45  39  81 CALM      29.85F HAZE
QUAKERTOWN*    CLOUDY    48  46  93 S8        29.86F
READING        LGT RAIN  44  40  85 N3        29.83F FOG
LANCASTER      LGT RAIN  48  46  93 E6        29.81F FOG
COATESVILLE    LGT RAIN  54  54 100 SW7       29.85F
POTTSTOWN      LGT RAIN  51  48  89 S5        29.87F
BLUE BELL      CLOUDY    54  52  94 CALM      29.85F
DOYLESTOWN     LGT RAIN  47  46  97 CALM      29.85F
WILLOW GROVE   NOT AVBL
NORTH PHILA    CLOUDY    53  48  83 CALM      29.88F HAZE
PHILADELPHIA   CLOUDY    54  51  90 CALM      29.87F FOG
$$


USA.gov is the U.S. government's official web portal to all federal, state and local government web resources and services.